This demonstration page uses our WeatherBlox Daily Observations layout. Learn more.

Left ArrowRight Arrow

41.86663, -103.66717

Hourly Observations for March 17, 2021

Temp ( °F °C ) Dew Point ( °F °C ) Humidity (%) Winds ( mph kmh ) Pressure ( in mb ) Visibility ( mi km ) Precip ( " mm )
12:53 am 00:53 Clear 29 -1.7 26 -3.3 89 89 NW 10 17 30.05 1018 10 16.0934 0 0
1:22 am 01:22 Mostly Cloudy 30 -1.1 27 -2.8 88 88 NNW 12 19 30.11 1020 10 16.0934 0 0
1:51 am 01:51 Partly Cloudy 28 -2 27 -3 93 93 NW 13 20 30.11 1020 10 16.0934 0 0
1:53 am 01:53 Mostly Clear 29 -1.7 26 -3.3 89 89 NW 13 20 30.04 1017 10 16.0934 0 0
2:43 am 02:43 Mostly Cloudy 31 -0.6 27 -2.8 85 85 NW 14 22 30.1 1019 10 16.0934 0 0
2:53 am 02:53 Cloudy 31 -0.6 27 -2.8 85 85 WNW 12 19 30.03 1017 10 16.0934 0 0
3:27 am 03:27 Mostly Cloudy 28 -2.2 25 -3.9 88 88 WNW 10 17 30.13 1020 10 16.0934 0 0
3:53 am 03:53 Mostly Cloudy 28 -2.2 25 -3.9 88 88 WNW 13 20 30.06 1018 10 16.0934 0 0
4:53 am 04:53 Cloudy 29 -1.7 25 -3.9 85 85 WNW 10 17 30.09 1019 10 16.0934 0 0
5:53 am 05:53 Cloudy 32 0 27 -2.8 82 82 NNW 15 24 30.11 1020 10 16.0934 0 0
6:53 am 06:53 Cloudy 31 -0.6 27 -2.8 85 85 NW 12 19 30.13 1020 10 16.0934 0 0
7:53 am 07:53 Cloudy 32 0 28 -2.2 85 85 NNW 10 17 30.16 1021 10 16.0934 0 0
8:11 am 08:11 Cloudy 32 0 28 -2.2 85 85 NNW 10 17 30.21 1023 10 16.0934 0 0
8:18 am 08:18 Cloudy 32 0 28 -2.2 85 85 NW 9 15 30.22 1023 10 16.0934 0 0
8:53 am 08:53 Cloudy 32 0 28 -2.2 85 85 NNW 9 15 30.19 1022 10 16.0934 0 0
9:28 am 09:28 Cloudy 33 0.6 28 -2.2 82 82 NW 9 15 30.23 1024 10 16.0934 0 0
9:53 am 09:53 Mostly Cloudy 34 1.1 28 -2.2 79 79 NW 10 17 30.19 1023 10 16.0934 0 0
10:53 am 10:53 Sunny 34 1.1 27 -2.8 76 76 NW 13 20 30.21 1023 10 16.0934 0 0
11:53 am 11:53 Sunny 35 1.7 27 -2.8 72 72 NW 15 24 30.22 1023 10 16.0934 0 0
12:53 pm 12:53 Sunny 35 1.7 27 -2.8 72 72 NW 17 28 30.21 1023 10 16.0934 0 0
1:53 pm 13:53 Sunny 36 2.2 27 -2.8 70 70 NW 17 28 30.2 1023 10 16.0934 0 0
2:53 pm 14:53 Sunny 37 2.8 28 -2.2 70 70 NW 15 24 30.19 1022 10 16.0934 0 0
3:53 pm 15:53 Sunny 37 2.8 28 -2.2 70 70 NW 16 26 30.19 1023 10 16.0934 0 0
4:53 pm 16:53 Sunny 37 2.8 28 -2.2 70 70 NW 14 22 30.2 1023 10 16.0934 0 0
5:53 pm 17:53 Sunny 36 2.2 28 -2.2 73 73 WNW 12 19 30.2 1023 10 16.0934 0 0
6:53 pm 18:53 Sunny 34 1.1 26 -3.3 73 73 Calm 30.22 1023 10 16.0934 0 0
7:53 pm 19:53 Clear 30 -1.1 25 -3.9 82 82 NNW 8 13 30.23 1024 10 16.0934 0 0
8:53 pm 20:53 Clear 29 -1.7 25 -3.9 85 85 N 3 6 30.24 1024 10 16.0934 0 0
9:53 pm 21:53 Clear 27 -2.8 20 -6.7 75 75 NNE 5 7 30.26 1025 10 16.0934 0 0
10:53 pm 22:53 Clear 25 -3.9 20 -6.7 81 81 N 6 9 30.27 1025 10 16.0934 0 0
11:53 pm 23:53 Clear 26 -3.3 21 -6.1 81 81 N 5 7 30.28 1026 10 16.0934 0 0

Powered by AerisWeather